Details From LFKJ - Napoleon Bonaparte
To LFKB - Bastia Poretta
Flight Number -
Tags None
Created
Modified
Stats Distance 51 nm / 94 km
Max Altitude 200 ft / 61 m
Waypoints 3
Social Downloads 20
Likes 0
Share VATSIM

Download

Looking for another format? Having issues loading an existing format? Contact us
Advertisement - Login to hide

Notes

None

Route

LFKJ BTA LFKB

ID Type Via Altitude Latitude Longitude Leg Dist Tot Dist Heading (true) Name
O LFKJ APT - 0 ft / 0 m 41.92289˚ 8.79959˚ - 0 nm - Napoleon Bonaparte
BTA VOR - 200 ft / 61 m 42.57369˚ 9.47459˚ 49 nm 49 nm 37° / 38° BASTIA PORETTA VOR-DME
O LFKB APT - 0 ft / 0 m 42.55251˚ 9.48371˚ 1 nm 50 nm 162° / 162° Bastia Poretta

Altitude Profile

Advertisement - Login to hide

LFKJ

Details ICAO LFKJ (AJA)
Name Napoleon Bonaparte
Region France
Timezone Europe/Paris (UTC+1.0)
Stats Elevation 18 ft / 5 m (AMSL)
Location 41.922886° 8.799587°
Runways 2
Magnetic Variation 2.329° E

METAR

LFKJ 121800Z AUTO 36002KT 6000 RA FEW010 BKN030 BKN037 11/10 Q1016 TEMPO 4000 RA BKN010 FEW025TCU

Decode

TAF

TAF LFKJ 121400Z 1215/1315 VRB05KT 9999 SCT040 OVC060 TEMPO 1215/1224 4000 RA BKN010 FEW025TCU BECMG 1310/1312 30010KT

Decode

Departure Runways

ID Width Length Bearing (true) Bearing (mag) Surface Threshold Offset Overrun Length
02 180 ft / 55 m 7,899 ft / 2,408 m 24.94° 22.61° Asphalt 0 ft / 0 m 164 ft / 50 m
10 98 ft / 30 m 3,447 ft / 1,051 m 94.35° 92.02° Concrete 0 ft / 0 m 164 ft / 50 m
20 180 ft / 55 m 7,899 ft / 2,408 m 204.95° 202.62° Asphalt 745 ft / 227 m 230 ft / 70 m
28 98 ft / 30 m 3,447 ft / 1,051 m 274.36° 272.03° Concrete 213 ft / 65 m 0 ft / 0 m

LFKB

Details ICAO LFKB (BIA)
Name Bastia Poretta
Region France
Timezone Europe/Paris (UTC+1.0)
Stats Elevation 25 ft / 8 m (AMSL)
Location 42.552508° 9.483709°
Runways 1
Magnetic Variation 2.484° E

METAR

LFKB 121800Z AUTO 31005KT 250V350 9999 SCT068 OVC100 13/06 Q1014 TEMPO RA BKN015 FEW025TCU

Decode

TAF

TAF TAF LFKB 121400Z 1215/1315 VRB05KT 9999 SCT030 BKN070 OVC110 PROB30 TEMPO 1215/1221 RA BKN015 FEW025TCU BECMG 1301/1303 23010KT TX15/1313Z TN08/1304Z

Decode

Destination Runways

ID Width Length Bearing (true) Bearing (mag) Surface Threshold Offset Overrun Length
16 148 ft / 45 m 8,273 ft / 2,522 m 162.83° 160.35° Concrete 0 ft / 0 m 131 ft / 40 m
34 148 ft / 45 m 8,273 ft / 2,522 m 342.84° 340.36° Concrete 0 ft / 0 m 0 ft / 0 m

Approach Navaids

Runway Type Ident Frequency Range Bearing (true) Bearing (mag) Slope Elevation
34 Localiser BP 111.35 MHz 27 nm / 50 km 342.81° 340.33° - 25 ft / 8 m (AMSL)
34 Glidescope BP 111.35 MHz 27 nm / 50 km 342.81° 340.33° 3.00° 25 ft / 8 m (AMSL)
34 DME BP 111.35 MHz 18 nm / 33 km - - - 69 ft / 21 m (AMSL)

Popular Alternatives